CZ-3B R/B (44796 NORAD) Tracking and Keplerian Element Data

This shows tracking and keplerian element data for the satellite.

Feedback or suggestion? Click here.




ElementValue
Catalog44796
NameCZ-3B R/B
Epoch Orbit124
Epoch Day355.33968707
Epoch Year2019
RAAN7.1924
Inclination55.0032
Eccentricity0.5813533
Argument of Perigee179.6411
Mean Anonmoly181.2328
Mean Motion4.40508301
Decay Rate0.00014809
L11 44796U 19078D 19355.33968707 .00014809 00000-0 45827-3 0 9992
L22 44796 55.0032 7.1924 5813533 179.6411 181.2328 4.40508301 1244

Live tracking and technical data element details for CZ-3B R/B (NORAD 44796). CZ-3B R/B can be tracked NOW for your location showing map with azimuth and elevation plus other details from your city location.

Track the satellite on the map from your city or location and see movement details for azimuth, elevation, latitude, longitude, range, height, and movement on the map or in text.







IsCatalogInMostPopularTable: catalog: 44796, numindb: 44
Update: records affected: 1



GetName: 44796 CZ-3B R/B

Hit Count: updated at: Fri, 10 Apr 2020 19:25:04 GMT